Other Public Products
Issued by NWS Grand Forks, ND

Home | Current Version | Previous Version | Text Only | Print | Product List | Glossary Off
Versions: 1 2 3 4 5 6 7 8 9 10 11 12 13 14 15 16 17 18 19 20 21 22 23 24 25 26 27 28 29 30 31 32 33 34 35 36 37 38 39 40 41 42 43 44 45 46 47 48 49 50

109
FPUS83 KFGF 200710
OPUFGF
PRAIRIE TO PINES WEATHER ROUNDUP
NATIONAL WEATHER SERVICE EASTERN NORTH DAKOTA/GRAND FORKS ND
200 AM CDT FRI OCT 20 2017

 **SATELLITE DATA USED TO AUGMENT SKY COVER AT AUTOMATED STATIONS**
 *****  WEATHER ACROSS EASTERN NORTH DAKOTA  *****

CITY           SKY/WX    TMP DP  RH WIND       PRES   REMARKS
GRAND FORKS    FAIR      48  41  76 S8        29.67F
GRAND FORKS AF FAIR      44  39  80 S8        29.66F
GRAND CITY NWS NOT AVBL
BUXTON         NOT AVBL
DEVILS LAKE    FAIR      47  42  83 SE7       29.64F
FARGO          FAIR      58  48  69 S14G24    29.70F
WAHPETON ARPT  NOT AVBL
$$

 *****  WEATHER ACROSS CENTRAL AND WESTERN NORTH DAKOTA  *****

CITY           SKY/WX    TMP DP  RH WIND       PRES   REMARKS
JAMESTOWN      FAIR      50  43  77 S10       29.65F
BISMARCK       FAIR      44  37  76 NE10      29.60F
MINOT          FAIR      54  37  52 SE3       29.56F
MINOT AFB      FAIR      48  35  60 S9        29.55F
GARRISON         N/A     47  37  68 CALM      29.59F
WILLISTON      FAIR      48  34  58 CALM      29.52F
DICKINSON      FAIR      47  32  56 S8        29.54F
HETTINGER      FAIR      49  31  49 VRB3      29.59F
$$

 *****  OTHER OBSERVATIONS NORTHEAST NORTH DAKOTA  *****

CITY           SKY/WX    TMP DP  RH WIND       PRES   REMARKS
WALHALLA       FAIR     N/A N/A N/A CALM      29.63F
LANGDON        FAIR      46  37  71 S9        29.65F
CAVALIER       FAIR      43  36  75 CALM      29.64F
GRAFTON        FAIR      43  37  81 SE9       29.68S
CANDO          FAIR      41  41 100 SE9       29.65S
FORT TOTTEN      N/A     53  39  58 SE6       29.95
ROLLA          FAIR      48  34  57 S6        29.63F
RUGBY          FAIR      41  36  81 SE9       29.60F
 ***** THE ABOVE OBSERVATIONS ARE NON NWS ARE NOT QUALITY
        CONTROLLED AND MAY MIS-REPORT RAIN FOR SNOW...
$$

 *****  OTHER OBSERVATIONS SOUTHEAST NORTH DAKOTA *****

CITY           SKY/WX    TMP DP  RH WIND       PRES   REMARKS
COOPERSTOWN    FAIR      46  41  81 SE8       29.67F
VALLEY CITY    FAIR      52  46  82 S12       29.68F
OAKES          NOT AVBL
GWINNER          N/A     55  48  76 SW8       29.70F
SHEYENNE NWR     N/A     51  47  87 SE3       29.95S
BUFFALO        NOT AVBL
WYNDMERE       NOT AVBL
 ***** THE ABOVE OBSERVATIONS ARE NON NWS ARE NOT QUALITY
       CONTROLLED AND MAY MIS-REPORT RAIN FOR SNOW...
$$

  *****  WEATHER ACROSS NORTHERN MINNESOTA  *****

CITY           SKY/WX    TMP DP  RH WIND       PRES   REMARKS
FLAG ISLAND    FAIR      52  46  82 SE6       29.71S
WARROAD        FAIR      52  43  71 CALM      29.73S
ROSEAU         FAIR      50  43  76 S6        29.72S
HALLOCK        FAIR      48  37  66 SE9       29.67F
THF RVR FALLS  FAIR      52  43  71 SE7       29.72F
HALSTAD        NOT AVBL
FOSSTON        FAIR      55  45  67 S13       29.74F
BAUDETTE       FAIR      49  39  68 SE5       29.75S
WASKISH        FAIR      52  41  66 CALM      29.77S
CROOKSTON      FAIR      55  46  71 S9        29.70F
$$
  *****  WEATHER ACROSS CENTRAL AND WEST MINNESOTA  *****

CITY           SKY/WX    TMP DP  RH WIND       PRES   REMARKS
BEMIDJI        FAIR      55  43  64 S7        29.77F
PARK RAPIDS    FAIR      49  42  77 SE8       29.80F
WADENA         FAIR      52  45  76 S6        29.80F
DETROIT LAKES  FAIR      54  46  76 SE8       29.78S
MOORHEAD       FAIR      55  46  71 SE15      29.72F
FERGUS FALLS   FAIR      55  46  71 S12       29.77F
ELBOW LAKE     FAIR      53  47  80 E10       29.78F
MORRIS MN      FAIR      52  46  82 SE9       29.79F
STAPLES        FAIR      52  43  71 S6        29.82F
WHEATON        FAIR      54  46  76 SE10      29.77F
$$
  *****  WEATHER ELSEWHERE ACROSS MINNESOTA  *****

CITY           SKY/WX    TMP DP  RH WIND       PRES   REMARKS
DULUTH         FAIR      55  38  52 SW9       29.89F
INTRNTL FALLS  FAIR      52  36  54 VRB3      29.78S
ELY            FAIR      55  36  47 S5        29.86S
CLOQUET        FAIR      55  36  47 S8        29.88F
BRAINERD       FAIR      54  43  66 S12       29.85F
HIBBING        FAIR      36  32  85 CALM      29.85F
ALEXANDRIA     FAIR      56  48  74 S10       29.83F
SAINT CLOUD    FAIR      51  46  83 SE8       29.88S
MINNEAPOLIS    FAIR      55  48  77 SE6       29.91F
$$

  *****  WEATHER ACROSS SOUTH DAKOTA  *****

CITY           SKY/WX    TMP DP  RH WIND       PRES   REMARKS
SIOUX FALLS    FAIR      62  51  67 S13       29.86S
BROOKINGS      FAIR      56  50  80 S12       29.84S
WATERTOWN      FAIR      53  50  89 SE10      29.79F
HURON          FAIR      57  49  74 S15G24    29.75F
SISSETON         N/A     67  50  54 SW22      29.71F
ABERDEEN       FAIR      56  48  74 S10       29.72S
MITCHELL       FAIR      60  50  69 S14       29.79F
PIERRE         FAIR      67  47  48 S24G35    29.65F
MOBRIDGE       FAIR      58  47  66 SE15      29.61F
RAPID CITY     FAIR      56  25  30 S6        29.66F
$$

  *****  SOME WEATHER IN NEARBY STATES *****

CITY           SKY/WX    TMP DP  RH WIND       PRES   REMARKS
GLASGOW MT     FAIR      51  30  44 E15       29.44F
GREAT FALLS MT FAIR      53  16  23 SW10      29.44F
CHEYENNE WY    FAIR      44  26  49 W7        29.89F
SCOTTSBLUFF NE FAIR      55  32  41 E5        29.79F
OMAHA NE       FAIR      59  50  72 SE10      29.99R
DES MOINES IA  FAIR      59  52  77 S10       30.02S
DAVENPORT IA   FAIR      58  50  75 S8        30.11S
CHICAGO IL     FAIR      52  39  61 S6        30.14S
EAU CLAIRE WI  FAIR      49  37  63 CALM      29.98S
LA CROSSE WI   FAIR      60  45  57 S12       30.01S
$$

  *****  SOME NATIONAL WEATHER *****

CITY           SKY/WX    TMP DP  RH WIND       PRES   REMARKS
LA GUARDIA NY  FAIR      64  47  53 W12       30.06F
RALEIGH NC     FAIR      47  47 100 CALM      30.22S
ATLANTA GA     FAIR      53  47  79 CALM      30.26R
NEW ORLEANS LA FAIR      71  67  87 E5        30.14F
OKLAHOMA CITY  MOCLDY    59  52  77 S12       30.07F
ALBUQUERQUE NM CLOUDY    53  51  93 SE6       30.07F
SALT LAKE CITY FAIR      66  39  37 S17       29.71F
LOS ANGELES CA FAIR      65  59  81 E5        29.92R
BOISE ID       FAIR      61  23  23 SE10      29.49F
SEATTLE WA     CLOUDY    50  47  89 SW9       29.51S
$$

*** WEATHER ACROSS MANITOBA...SASKATCHEWAN AND ONTARIO ***
                ***ONTARIO***

CITY           SKY/WX    TMP DP  RH WIND       PRES   REMARKS
GERALDTON      CLEAR     30  28  93 E3        29.92S
THUNDER BAY    CLEAR     34  32  93 SW5       29.89F
SIOUX LOOKOUT  CLEAR     46  36  66 S6        29.76S
TORONTO        PTCLDY    52  37  58 NW9       30.12R
BIG TROUT LK   CLOUDY    36  36 100 E5        29.87R
PICKLE LAKE    NOT AVBL
DRYDEN         CLEAR     52  37  58 S10G17    29.76R
KENORA         PTCLDY    52  41  66 S7        29.73S
$$
                *** MANITOBA***

CITY           SKY/WX    TMP DP  RH WIND       PRES   REMARKS
BRANDON        PTCLDY    37  30  75 NE6       29.59F
DAUPHIN        CLEAR     45  34  65 E5        29.54S
ISLAND LAKE    PTCLDY    39  32  75 E10       29.71F
PILOT MOUND      N/A     41  32  70 S7          N/A
THE PAS        MOCLDY    37  36  93 E7        29.56F
THOMPSON       CLOUDY    34  32  93 E7        29.72F
WINNIPEG       CLEAR     50  39  66 S9        29.64F
LYNN LAKE      CLOUDY    32  32 100 SE7       29.68R
CHURCHILL      CLOUDY    32  28  86 E9        29.93R WCI  24
GILLAM         CLOUDY    34  32  93 E7        29.84S
$$
                ***SASKATCHEWAN***

CITY           SKY/WX    TMP DP  RH WIND       PRES   REMARKS
ESTEVAN        PTCLDY    46  32  57 SE8       29.53F
KINDERSLEY     MOCLDY    48  32  53 SE10      29.40F
LLOYDMINSTER   CLOUDY    45  36  70 S8        29.31F
PRINCE ALBERT  CLOUDY    39  32  75 E8        29.48F
REGINA         PTCLDY    45  25  45 E10       29.47F
YORKTON        CLEAR     41  30  65 SE5       29.51F



USA.gov is the U.S. government's official web portal to all federal, state and local government web resources and services.